Terug naar catalogus

STARLINK-34328

ActiefCommunicatieVLEO
NORAD 64220·PAYLOAD·🇺🇸 United States

Gelanceerd May 31, 2025 vanaf Vandenberg Space Force Base

Loading…

Volgende Passages (komende 24 uur)

TLE

VersSource: CelesTrak SupGP

Epoch: Sep 15, 2026, 03:54 UTC

1 64220C 25117T   26258.16298611 -.00052115  00000+0 -15397-2 0  2587
2 64220  53.1582 236.6009 0001380  87.3447   0.5402 15.34417216    17

Volg STARLINK-34328 in realtime met AllMySat

Download on the App Store